Wind_Speed
16 17 18 17 16 18 18 16 15 15 14 13 13 13 12 11 12 11 11 10 10 9 9 9 9 9 7 6 7 7 6 5 4 4 4 5 5 5 6 5 5 3 5
21 18 20 17 15 18 19 16 15 15 12 11 11 10 9 9 10 9 10 9 9 8 9 9 9 8 6 5 5 6 5 5 4 3 1 4 6 6 5 6 6 7 7
22 20 18 18 16 18 17 16 13 13 12 10 9 8 9 8 9 9 9 8 8 9 10 9 9 8 7 6 5 5 6 6 5 4 3 9 11 9 8 6 7 8 7
23 21 18 19 17 17 15 14 12 11 10 10 9 7 7 7 8 8 8 8 8 9 9 8 8 7 7 7 8 8 8 9 9 11 11 2 10 6 11 10 7 6 3
22 19 18 18 16 14 14 13 12 11 9 9 8 8 6 7 8 8 8 8 8 7 8 8 8 8 8 8 9 9 10 11 17 19 16 8 14 12 9 6 7 2 4
20 19 19 17 15 15 14 12 11 10 8 6 7 7 5 6 6 7 7 7 6 7 8 8 9 9 10 10 10 12 13 14 16 24 11 2 10 6 2 2 5 11 11
20 19 18 17 15 14 13 11 9 8 6 6 5 5 4 5 5 5 5 6 6 7 7 8 9 10 10 11 12 13 11 15 11 13 9 10 14 9 6 2 9 9 9
19 19 17 16 15 14 11 10 9 7 6 5 4 3 3 3 4 4 5 5 5 6 8 10 11 11 10 10 11 12 11 10 9 11 8 15 8 3 5 1 2 9 6
20 18 19 16 15 14 11 9 9 8 7 4 3 1 2 4 5 7 7 6 5 7 9 9 10 10 7 7 9 8 4 6 12 14 16 15 9 5 3 2 2 6 6
19 17 17 17 17 13 12 10 8 7 6 4 0 2 5 7 6 8 6 7 6 7 8 9 10 10 8 6 6 7 5 8 11 5 12 13 10 7 5 4 4 0 3
20 18 17 17 18 14 12 11 8 6 5 3 3 5 2 2 4 1 1 4 6 6 7 8 11 12 15 8 5 11 8 17 17 9 15 17 13 10 8 4 3 1 3
20 20 19 17 17 16 11 10 10 5 5 5 2 1 1 3 0 2 3 2 4 3 4 6 10 13 15 6 7 14 9 14 16 23 19 17 14 12 10 9 7 2 2
23 20 19 19 16 15 15 13 9 7 0 1 3 5 1 5 5 7 5 4 4 6 5 10 10 15 11 12 11 11 18 19 23 20 19 17 16 15 15 14 12 11 9
24 25 23 21 18 16 15 16 14 10 7 6 6 5 3 3 11 4 3 5 9 5 9 11 13 11 12 12 10 14 16 16 15 20 17 17 18 19 18 19 19 18 16
22 21 22 23 20 18 15 18 16 13 7 4 3 8 4 5 2 1 5 5 7 12 13 12 11 12 11 12 10 14 15 18 17 18 19 21 22 23 22 22 22 21 20
23 23 22 20 22 19 16 14 20 18 11 8 6 7 5 7 2 5 1 8 4 8 9 10 8 9 7 7 9 13 17 14 18 20 18 22 23 23 23 23 21 20 19
25 22 24 21 20 19 17 15 17 17 13 10 10 4 4 7 2 9 1 6 6 5 7 9 9 9 6 7 9 14 14 12 13 14 16 21 20 22 23 22 21 21 20
21 25 24 20 20 19 18 15 13 11 13 12 6 7 7 7 5 6 5 1 4 5 7 9 13 9 7 7 13 10 12 13 13 14 15 17 19 17 19 22 24 24 21
21 21 20 20 20 19 17 14 15 12 14 12 12 9 7 7 7 9 5 3 2 3 4 9 12 7 3 7 13 11 9 12 13 15 16 17 17 14 14 18 22 21 23
23 23 22 22 22 20 18 16 15 13 13 12 8 8 7 8 7 8 9 1 6 2 6 7 7 7 5 9 11 9 9 10 12 16 14 17 16 15 14 11 16 23 20
21 21 23 24 22 21 19 18 17 17 16 14 12 10 9 7 4 8 4 6 4 2 4 6 6 5 5 5 8 10 9 10 13 14 15 14 14 15 15 16 14 15 20
23 22 22 23 24 23 20 19 18 17 16 16 14 12 12 10 10 9 8 7 3 8 1 4 5 5 4 2 4 3 3 6 12 12 11 12 12 14 16 17 16 16 17
25 24 23 23 23 23 21 20 17 16 14 15 16 13 14 13 13 12 8 9 5 5 6 3 4 6 3 5 4 6 2 3 13 9 9 9 9 12 14 15 16 17 17
26 25 24 24 24 23 24 20 20 19 19 20 18 17 15 15 15 14 13 10 8 9 9 6 4 7 4 5 7 1 3 8 2 5 6 8 8 11 11 13 15 17 18
29 27 26 25 23 22 23 22 20 21 20 18 19 19 18 16 16 15 14 12 11 11 12 9 8 7 7 5 9 2 2 7 11 8 7 8 9 8 9 12 14 15 15
31 27 27 27 26 25 24 24 21 20 20 15 17 13 17 17 15 18 15 13 12 12 12 11 9 9 8 5 9 2 4 5 1 11 9 12 9 6 9 10 13 13 13
Wind_Direction
128 132 133 127 127 126 121 115 114 124 122 113 106 101 96 86 81 79 73 62 52 46 47 43 36 29 36 49 54 53 54 57 60 71 102 105 107 86 64 99 41 129 80
132 134 137 134 136 133 126 122 121 122 119 110 105 104 94 81 73 65 60 57 48 46 37 28 28 25 32 37 39 41 36 30 26 30 238 187 162 97 77 64 48 52 50
131 137 136 136 139 133 134 124 117 117 120 113 106 97 88 76 59 46 40 40 41 33 24 25 30 25 17 19 16 14 0 352 334 310 262 230 211 138 94 62 27 16 24
132 137 140 143 139 144 138 130 123 121 119 110 106 95 80 65 50 36 27 26 27 24 28 35 35 24 7 357 348 344 340 324 289 247 230 264 137 79 96 91 53 27 117
134 136 145 144 144 141 139 134 128 128 125 117 108 96 74 51 40 25 25 17 19 31 37 34 29 19 5 357 351 349 339 315 296 286 268 110 85 86 102 123 246 152 175
139 141 148 147 143 141 137 138 135 128 122 112 99 90 57 49 27 24 17 14 28 38 37 28 17 6 0 358 347 344 336 315 311 330 18 5 80 0 307 207 192 206 213
133 141 146 148 145 141 140 140 138 133 131 117 92 75 58 33 24 24 20 15 34 30 20 7 356 351 348 345 343 340 334 319 333 354 274 65 65 47 16 263 214 205 226
135 138 145 149 146 145 144 142 140 142 125 112 91 55 41 37 40 42 54 38 26 14 359 353 351 347 345 348 347 348 339 330 326 330 49 71 60 57 47 352 278 202 224
145 143 145 151 149 146 149 150 146 142 134 125 99 28 49 68 77 68 54 36 15 359 353 355 355 354 1 4 7 15 357 12 17 4 34 59 76 76 93 325 32 201 233
148 148 150 152 148 148 150 151 149 150 148 130 111 66 108 99 70 49 32 0 3 12 21 24 18 2 342 334 355 351 335 30 67 35 53 59 64 64 75 44 46 145 260
151 157 158 150 155 157 152 157 152 159 162 165 85 72 306 147 273 351 42 5 32 54 43 35 16 351 343 291 320 24 319 35 53 74 62 55 69 68 67 62 48 295 257
162 158 163 164 158 148 161 161 155 176 219 211 130 157 259 178 154 226 174 58 53 20 353 342 1 345 357 347 4 343 46 44 54 61 58 53 61 64 70 71 76 88 230
172 166 172 168 168 159 169 158 165 179 275 138 217 227 203 266 264 320 238 264 36 40 280 349 16 4 348 26 33 15 51 57 56 59 54 56 63 69 75 77 78 79 83
173 168 179 178 176 178 179 185 180 179 222 248 208 215 224 253 345 300 13 358 58 5 358 11 8 353 1 11 31 57 52 75 67 64 55 68 75 76 76 75 75 78 79
177 179 177 182 181 185 188 191 188 197 216 240 260 208 267 285 279 353 345 11 15 0 8 7 4 10 23 23 61 60 65 84 69 80 72 76 76 75 75 74 73 73 75
187 178 181 189 180 189 194 198 198 212 213 237 262 352 220 284 200 304 251 -0 32 6 355 3 354 27 21 57 57 63 78 73 92 99 89 80 75 73 72 71 71 71 71
188 182 174 186 184 196 198 201 208 216 222 233 237 283 243 255 230 307 341 315 18 345 354 1 21 34 57 57 67 66 76 75 87 109 112 101 77 70 68 67 67 65 64
190 169 171 186 192 197 203 199 196 219 216 221 222 226 231 240 279 253 273 42 19 320 30 8 18 46 65 70 81 79 87 91 85 81 68 68 81 74 63 68 70 61 59
169 169 175 181 193 196 203 205 206 199 207 230 208 209 223 236 234 265 312 48 298 334 31 12 21 35 11 106 94 89 95 91 82 83 78 74 85 90 85 64 61 58 57
182 181 194 188 192 194 196 205 214 209 212 228 210 213 216 240 228 257 308 39 290 328 17 15 4 357 343 99 84 94 90 96 96 91 88 85 73 64 66 59 73 64 62
193 189 191 189 192 191 195 200 207 210 212 220 226 210 217 243 261 264 286 269 262 270 348 337 344 26 323 112 119 105 75 95 81 91 87 80 77 67 62 58 64 64 61
189 194 196 198 191 195 201 206 209 211 217 217 220 208 216 225 230 248 265 284 265 312 261 315 335 339 296 228 177 144 150 80 81 80 83 85 80 73 65 65 69 69 74
186 193 195 199 195 198 206 209 214 219 222 221 226 224 222 226 222 234 252 268 306 289 303 331 316 326 319 280 261 247 176 147 118 88 96 91 90 85 79 77 76 74 73
193 191 194 198 199 200 202 202 207 216 220 221 220 222 219 217 222 219 229 243 259 268 309 286 292 316 322 288 294 143 18 154 148 133 111 114 97 82 81 80 81 79 79
199 192 193 194 200 201 202 211 205 217 227 225 216 219 215 209 215 218 219 232 248 260 257 266 288 301 308 287 267 193 360 187 159 144 141 142 105 102 95 89 86 88 87
204 189 195 192 196 202 200 208 208 214 232 223 219 207 210 215 209 214 213 224 235 250 255 253 266 276 274 273 282 33 275 283 121 134 142 148 135 124 105 95 96 98 97
Height
809 813 816 818 819 821 823 825 827 828 829 830 831 833 833 834 834 834 834 835 834 833 833 832 831 829 828 826 825 824 823 823 821 821 820 819 818 819 820 821 823 824 824
808 814 817 819 821 822 824 827 828 830 832 833 835 835 836 837 837 837 836 836 835 834 834 833 831 830 829 828 827 826 826 825 823 821 819 818 817 816 819 822 824 826 826
809 815 819 821 823 825 827 830 832 833 834 836 838 838 839 839 840 839 838 838 837 836 835 833 832 831 830 829 828 827 826 825 823 818 814 813 814 813 815 822 826 826 828
810 816 820 823 825 827 829 832 834 836 837 838 840 841 841 841 841 841 840 839 838 836 835 834 833 831 830 829 829 828 827 823 815 804 800 803 809 811 817 817 824 826 827
812 818 822 825 827 829 832 834 836 838 839 840 841 842 842 842 842 842 841 840 839 838 836 835 833 832 830 830 829 828 825 819 807 798 781 809 804 813 815 816 822 824 825
815 820 823 826 829 831 834 836 838 840 841 843 843 844 844 844 842 842 842 842 841 839 837 836 834 832 831 830 828 827 823 815 806 802 794 808 802 810 814 816 819 820 822
817 822 826 828 831 834 837 839 840 841 843 844 845 845 844 844 843 843 842 842 841 840 838 836 834 833 831 829 827 825 822 813 816 791 787 790 801 811 813 815 815 817 819
820 824 828 830 833 835 838 840 842 843 844 845 845 845 845 844 844 843 843 842 841 840 838 836 834 832 829 828 826 822 818 810 807 802 779 793 805 813 814 815 816 818 821
821 826 827 831 834 837 839 841 843 844 845 846 846 846 845 844 844 844 844 843 841 840 839 837 834 831 828 826 824 820 815 818 820 813 806 805 814 816 816 816 816 817 818
823 827 831 832 835 838 840 842 844 845 846 846 846 846 845 845 845 844 844 843 842 840 839 838 834 830 827 825 821 815 812 822 810 814 822 815 815 817 818 817 817 818 819
823 827 831 833 836 837 840 842 844 846 846 846 846 847 846 846 845 845 845 844 842 840 839 837 833 829 825 823 819 817 814 822 817 821 825 817 818 819 818 818 818 819 819
824 827 831 834 836 838 841 842 844 847 847 846 847 848 846 846 846 845 843 841 840 840 838 836 833 829 825 821 822 816 818 813 817 818 820 820 820 820 820 820 821 820 820
821 826 830 834 837 838 841 841 844 845 846 847 849 848 848 845 845 842 844 840 839 840 837 835 834 831 825 821 821 821 818 821 818 821 824 824 824 824 824 824 823 822 822
818 824 826 832 836 838 840 840 840 843 847 847 847 848 847 846 844 843 842 841 841 839 839 837 836 834 829 824 824 824 825 826 826 828 830 829 829 828 827 827 826 825 825
817 822 825 829 833 837 839 840 842 845 848 848 848 847 846 846 846 845 843 842 843 841 840 840 839 836 833 830 829 829 830 830 831 832 835 834 833 832 831 831 830 829 829
816 820 825 828 832 836 839 841 842 843 846 848 847 847 848 846 846 844 844 843 844 845 844 842 840 838 836 834 835 833 834 834 834 835 837 837 837 837 835 834 834 833 832
814 817 823 828 832 835 837 840 842 843 846 847 847 848 849 848 848 846 845 845 845 845 844 842 840 839 839 838 838 836 838 838 839 837 837 837 839 840 840 839 838 836 836
810 816 822 826 830 833 836 839 841 843 845 845 846 848 848 848 848 847 846 845 847 845 844 843 840 841 841 840 840 840 841 842 842 841 840 840 841 843 844 843 842 841 841
808 814 820 824 828 831 834 837 840 841 843 843 844 846 847 848 848 848 847 846 847 845 844 845 844 844 841 841 841 843 844 844 844 844 844 844 845 845 846 846 846 845 845
802 810 817 822 826 829 832 835 837 839 841 841 843 845 848 848 848 848 847 847 847 845 844 847 846 845 844 842 842 845 847 846 846 847 847 847 848 849 849 849 847 849 848
800 805 811 818 821 825 830 832 834 836 838 840 842 844 847 848 848 849 847 847 848 846 848 849 846 846 844 844 844 847 848 849 849 850 850 850 851 852 852 852 851 851 852
797 803 809 813 818 822 826 829 831 833 834 838 840 841 844 846 848 849 849 848 847 847 847 848 848 847 846 844 845 846 849 852 852 852 853 854 854 855 855 855 855 855 854
791 799 805 810 814 819 822 827 830 832 833 835 837 839 841 843 845 847 848 849 849 849 846 847 847 846 845 844 842 840 843 846 851 855 855 857 856 856 857 858 858 858 858
787 793 800 807 811 815 818 821 825 827 827 829 832 835 837 840 842 844 846 848 848 848 847 847 846 846 845 844 841 838 841 844 846 854 857 857 857 857 858 859 861 862 862
781 787 794 802 807 811 814 817 821 823 823 824 828 831 835 836 839 841 843 845 846 847 846 846 846 846 845 843 841 836 840 838 842 844 854 857 858 860 860 861 863 865 866
773 782 790 795 801 807 811 814 816 819 820 821 824 828 830 832 834 836 839 841 843 844 844 844 844 844 843 843 841 838 838 835 836 841 847 854 858 860 861 863 865 867 869